SL-8 DEB, 21332

Orbit data source: Space-Track

SL-8 DEB, 21332 is space debris in LEO originally from a launch on Tue, 12 Feb 1991 UTC launched from the Plesetsk Missile And Space Complex (PKMTR). Debris objects in space refer to the collection of defunct objects orbiting the Earth. Examples of debris include non-operational satellites, rocket bodies, and fragments generated from explosions, collisions, or faulty payload assembly.

Loading next visibility...
Identifier
21332, 1991-009CP
Orbit
LEO
Country
Flag of CISCIS
Related business
Manufacturer
Unknown
Mission
Spacecraft
Bus & Motor
Unknown
Mass
Unknown
Launch date (UTC)
1991-02-12 (35 years ago)
Launch vehicle
Unknown
Launch site
Plesetsk Missile And Space Complex (PKMTR)
Object type
Payload
Rocket body
Debris
Shape & HBR
Unknown shape, 1.1 m
Radar Cross Section
Medium (>0.1 m² and <1 m²)

Expand to show TLE details & history
Last TLE update: 1 month ago

TLE from 1 month ago
0 SL-8 DEB
1 21332U 91009CP  26131.12067605  .00000241  00000-0  24395-2 0  9992
2 21332  74.1956 171.3765 0147607 300.5196  87.1102 12.18358998514108
Epoch: 2026-05-11T02:53Z
TLE epoch observation values (Epoch: 2026-05-11T02:53:46.410Z)
Latitude
28.15554°
Longitude
-92.31004°
Altitude
1,598.456 km
Speed
7.075 km/s
True Right ascension
12h 00m 11s
True Declination
28° 01' 40"
Sunlit
Object was in daylight at epoch
Visualization orbit readout
Latitude
Unknown
Longitude
Unknown
Altitude
Unknown
Speed
Unknown
Apparent Right ascension
Unknown
Apparent Declination
Unknown
Sunlit
N/A
Visualization observer readout
Local Sidereal Time
23:21:47
Azimuth
Unknown
Elevation
Unknown
Doppler factor
Unknown
Orbital elements
Apogee altitude
1,715.282 km
Perigee altitude
1,479.829 km
Semi-major axis
7,975.693 km
Eccentricity
0.01476
Inclination
74.1956°
RAAN
171.3765°
Arg. of periapsis
300.5196°
True anomaly
88.80083°
Mean anomaly
87.1102°
Eccentric anomaly
87.95539°
Mean motion
3.04713 °/min
Orbital period
118.14 mins
BSTAR
0.0024395
Loading maneuver chart data...
Computing Atmospheric mass density...
Loading historical data...
Loading historical data...
Loading historical data...
Loading historical data...
Loading historical data...
Loading historical data...
Loading historical data...

Documentation

Showing up to 5 results
|